QPF
0.01 0.02 0.02 0.02 0.02 0.01 0.01 0.01 0.02 0.01 0.02 0.02 0.03 0.04 0.05 0.05 0.02 0.01 0.02 0.02 0.03 0.03 0.02 0.02 0.02 0.01 0.01 0.01 0.00 0.00 0.00 0.00 0.00 0.01 0.01 0.02 0.02 0.02 0.03 0.03 0.03 0.02 0.03
0.01 0.01 0.01 0.01 0.01 0.01 0.01 0.01 0.01 0.00 0.01 0.01 0.01 0.02 0.03 0.04 0.06 0.03 0.02 0.02 0.02 0.02 0.01 0.01 0.01 0.01 0.01 0.01 0.01 0.00 0.00 0.00 0.00 0.00 0.00 0.00 0.01 0.01 0.02 0.03 0.05 0.05 0.04
0.01 0.01 0.02 0.02 0.02 0.01 0.01 0.01 0.01 0.00 0.01 0.01 0.01 0.01 0.01 0.02 0.03 0.04 0.04 0.03 0.02 0.02 0.02 0.01 0.01 0.01 0.01 0.01 0.00 0.00 0.00 0.00 0.00 0.00 0.00 0.00 0.01 0.01 0.01 0.02 0.05 0.06 0.04
0.01 0.01 0.02 0.01 0.02 0.02 0.02 0.01 0.01 0.00 0.01 0.02 0.01 0.01 0.01 0.02 0.02 0.03 0.04 0.05 0.04 0.03 0.03 0.02 0.02 0.01 0.01 0.00 0.00 0.00 0.00 0.00 0.00 0.00 0.00 0.01 0.01 0.01 0.01 0.01 0.03 0.05 0.05
0.01 0.01 0.01 0.01 0.01 0.01 0.02 0.01 0.00 0.00 0.01 0.02 0.01 0.01 0.01 0.01 0.02 0.03 0.03 0.04 0.05 0.05 0.05 0.05 0.04 0.03 0.02 0.01 0.00 0.00 0.00 0.00 0.00 0.00 0.00 0.00 0.01 0.02 0.02 0.02 0.02 0.04 0.06
0.01 0.01 0.01 0.01 0.01 0.01 0.01 0.02 0.01 0.01 0.02 0.02 0.02 0.01 0.01 0.02 0.02 0.02 0.03 0.03 0.04 0.06 0.06 0.07 0.06 0.05 0.04 0.03 0.01 0.00 0.00 0.00 0.00 0.00 0.00 0.00 0.00 0.01 0.01 0.03 0.04 0.04 0.05
0.01 0.01 0.00 0.01 0.01 0.01 0.02 0.02 0.02 0.02 0.01 0.01 0.02 0.02 0.02 0.02 0.02 0.03 0.03 0.04 0.04 0.03 0.04 0.04 0.04 0.03 0.03 0.03 0.03 0.02 0.01 0.00 0.00 0.00 0.00 0.00 0.00 0.00 0.01 0.02 0.03 0.03 0.02
0.02 0.01 0.00 0.00 0.00 0.01 0.02 0.03 0.03 0.02 0.01 0.02 0.03 0.03 0.02 0.02 0.02 0.03 0.03 0.03 0.04 0.04 0.03 0.03 0.02 0.02 0.02 0.02 0.02 0.02 0.01 0.01 0.00 0.00 0.00 0.00 0.00 0.00 0.01 0.02 0.03 0.03 0.02
0.01 0.01 0.00 0.00 0.00 0.01 0.02 0.02 0.03 0.02 0.01 0.02 0.03 0.03 0.03 0.03 0.03 0.03 0.03 0.03 0.03 0.04 0.03 0.03 0.03 0.02 0.02 0.02 0.02 0.02 0.01 0.01 0.01 0.00 0.01 0.01 0.01 0.01 0.01 0.02 0.02 0.03 0.02
0.01 0.00 0.00 0.00 0.00 0.01 0.01 0.01 0.02 0.02 0.02 0.02 0.03 0.04 0.04 0.04 0.04 0.05 0.04 0.03 0.03 0.03 0.02 0.02 0.03 0.03 0.02 0.02 0.02 0.01 0.01 0.01 0.00 0.00 0.01 0.01 0.02 0.01 0.01 0.02 0.02 0.03 0.02
0.00 0.00 0.00 0.01 0.01 0.01 0.01 0.02 0.02 0.02 0.02 0.02 0.03 0.02 0.02 0.03 0.03 0.03 0.02 0.02 0.03 0.03 0.03 0.03 0.03 0.03 0.03 0.03 0.02 0.01 0.01 0.01 0.00 0.00 0.01 0.02 0.03 0.02 0.01 0.01 0.03 0.02 0.02
0.01 0.01 0.01 0.01 0.01 0.01 0.02 0.02 0.01 0.01 0.02 0.02 0.02 0.01 0.02 0.02 0.02 0.03 0.03 0.03 0.03 0.02 0.02 0.02 0.02 0.03 0.03 0.03 0.03 0.02 0.01 0.01 0.00 0.00 0.00 0.01 0.02 0.02 0.02 0.01 0.02 0.02 0.01
0.01 0.01 0.01 0.02 0.02 0.02 0.02 0.03 0.03 0.03 0.03 0.03 0.02 0.01 0.02 0.02 0.02 0.02 0.03 0.02 0.02 0.02 0.02 0.02 0.02 0.02 0.03 0.03 0.03 0.02 0.02 0.02 0.01 0.01 0.00 0.00 0.01 0.01 0.02 0.03 0.04 0.02 0.01
0.01 0.01 0.01 0.01 0.01 0.02 0.02 0.02 0.03 0.02 0.02 0.02 0.02 0.02 0.02 0.03 0.03 0.03 0.03 0.03 0.03 0.02 0.02 0.02 0.02 0.03 0.03 0.02 0.02 0.02 0.02 0.02 0.02 0.02 0.01 0.01 0.01 0.02 0.04 0.05 0.04 0.01 0.01
0.01 0.01 0.01 0.01 0.01 0.01 0.01 0.01 0.02 0.01 0.01 0.01 0.01 0.02 0.03 0.03 0.03 0.03 0.03 0.03 0.03 0.03 0.03 0.03 0.02 0.02 0.02 0.02 0.02 0.02 0.02 0.03 0.03 0.04 0.03 0.02 0.03 0.06 0.07 0.05 0.03 0.01 0.01
0.01 0.01 0.01 0.01 0.01 0.01 0.00 0.01 0.01 0.01 0.01 0.01 0.01 0.01 0.02 0.02 0.03 0.04 0.04 0.04 0.03 0.03 0.03 0.03 0.02 0.02 0.01 0.02 0.03 0.03 0.01 0.02 0.03 0.03 0.03 0.03 0.03 0.05 0.05 0.04 0.03 0.02 0.02
0.00 0.00 0.00 0.00 0.00 0.00 0.00 0.00 0.00 0.01 0.02 0.02 0.02 0.01 0.02 0.03 0.03 0.04 0.04 0.03 0.03 0.03 0.04 0.04 0.04 0.03 0.02 0.03 0.03 0.03 0.01 0.01 0.01 0.02 0.02 0.02 0.03 0.04 0.03 0.04 0.03 0.03 0.03
0.00 0.00 0.00 0.00 0.00 0.00 0.00 0.01 0.01 0.01 0.01 0.02 0.02 0.02 0.02 0.02 0.03 0.03 0.03 0.03 0.03 0.03 0.03 0.04 0.05 0.05 0.03 0.02 0.03 0.03 0.01 0.01 0.01 0.01 0.01 0.02 0.02 0.03 0.03 0.02 0.02 0.03 0.03
0.01 0.00 0.00 0.00 0.00 0.00 0.01 0.01 0.01 0.01 0.01 0.01 0.01 0.02 0.02 0.03 0.03 0.03 0.03 0.03 0.03 0.03 0.02 0.02 0.03 0.03 0.03 0.03 0.03 0.03 0.02 0.01 0.01 0.01 0.01 0.01 0.02 0.03 0.03 0.02 0.02 0.02 0.02
0.01 0.00 0.00 0.00 0.00 0.01 0.01 0.01 0.01 0.01 0.01 0.01 0.01 0.01 0.02 0.03 0.03 0.04 0.04 0.03 0.03 0.04 0.03 0.03 0.03 0.03 0.03 0.03 0.03 0.03 0.01 0.01 0.01 0.01 0.01 0.01 0.02 0.03 0.03 0.02 0.02 0.02 0.02
0.00 0.01 0.00 0.00 0.00 0.01 0.01 0.02 0.02 0.02 0.02 0.01 0.01 0.01 0.01 0.02 0.02 0.03 0.04 0.04 0.06 0.06 0.06 0.05 0.04 0.03 0.03 0.04 0.04 0.03 0.02 0.01 0.01 0.01 0.01 0.01 0.02 0.02 0.02 0.02 0.02 0.02 0.02
0.00 0.00 0.01 0.01 0.01 0.01 0.02 0.02 0.02 0.03 0.03 0.02 0.01 0.01 0.01 0.02 0.03 0.04 0.04 0.04 0.05 0.07 0.08 0.07 0.06 0.04 0.03 0.03 0.04 0.03 0.02 0.01 0.01 0.01 0.01 0.01 0.01 0.01 0.01 0.01 0.02 0.03 0.03
0.00 0.00 0.00 0.00 0.01 0.01 0.01 0.01 0.02 0.03 0.03 0.02 0.02 0.02 0.01 0.01 0.02 0.03 0.03 0.03 0.03 0.05 0.06 0.06 0.05 0.04 0.03 0.03 0.03 0.02 0.02 0.02 0.02 0.01 0.01 0.02 0.01 0.01 0.01 0.01 0.02 0.02 0.02
0.01 0.01 0.01 0.01 0.01 0.01 0.01 0.02 0.02 0.02 0.02 0.02 0.02 0.01 0.01 0.02 0.02 0.03 0.03 0.03 0.03 0.03 0.03 0.04 0.04 0.03 0.02 0.02 0.02 0.02 0.02 0.02 0.02 0.03 0.02 0.02 0.01 0.01 0.01 0.01 0.01 0.01 0.02
0.01 0.01 0.01 0.01 0.01 0.01 0.01 0.01 0.02 0.02 0.02 0.02 0.02 0.02 0.02 0.03 0.04 0.03 0.03 0.04 0.03 0.03 0.03 0.02 0.02 0.02 0.01 0.02 0.02 0.02 0.02 0.02 0.02 0.02 0.02 0.02 0.02 0.02 0.02 0.02 0.03 0.03 0.04
0.01 0.01 0.01 0.01 0.02 0.01 0.01 0.01 0.01 0.02 0.02 0.01 0.02 0.02 0.04 0.04 0.04 0.03 0.03 0.02 0.02 0.02 0.02 0.02 0.01 0.01 0.01 0.01 0.01 0.01 0.01 0.02 0.02 0.02 0.02 0.02 0.02 0.03 0.03 0.03 0.04 0.05 0.06
MSLP
1015.76 1015.46 1015.16 1014.84 1014.46 1014.06 1013.66 1013.31 1013.04 1012.87 1012.81 1012.83 1012.90 1012.99 1013.05 1013.08 1013.08 1013.06 1013.06 1013.11 1013.22 1013.40 1013.66 1013.95 1014.26 1014.55 1014.80 1015.00 1015.15 1015.25 1015.32 1015.36 1015.39 1015.38 1015.33 1015.24 1015.08 1014.86 1014.59 1014.28 1013.96 1013.66 1013.38
1016.93 1016.59 1016.22 1015.79 1015.30 1014.76 1014.21 1013.70 1013.30 1013.01 1012.85 1012.80 1012.82 1012.86 1012.90 1012.89 1012.86 1012.81 1012.77 1012.79 1012.88 1013.06 1013.32 1013.64 1013.98 1014.31 1014.60 1014.84 1015.01 1015.14 1015.23 1015.30 1015.36 1015.40 1015.42 1015.40 1015.33 1015.20 1015.01 1014.77 1014.50 1014.23 1013.97
1017.94 1017.56 1017.14 1016.64 1016.06 1015.42 1014.76 1014.14 1013.62 1013.23 1012.99 1012.86 1012.82 1012.81 1012.79 1012.75 1012.67 1012.58 1012.51 1012.49 1012.56 1012.73 1013.00 1013.33 1013.68 1014.04 1014.35 1014.60 1014.79 1014.93 1015.04 1015.13 1015.23 1015.32 1015.40 1015.46 1015.48 1015.44 1015.33 1015.16 1014.95 1014.72 1014.48
1018.75 1018.36 1017.91 1017.38 1016.75 1016.04 1015.32 1014.62 1014.03 1013.56 1013.23 1013.03 1012.91 1012.83 1012.75 1012.65 1012.52 1012.37 1012.26 1012.21 1012.26 1012.42 1012.67 1013.00 1013.37 1013.73 1014.05 1014.31 1014.51 1014.66 1014.78 1014.90 1015.02 1015.16 1015.30 1015.42 1015.52 1015.55 1015.52 1015.42 1015.26 1015.07 1014.86
1019.42 1019.02 1018.58 1018.04 1017.40 1016.67 1015.92 1015.18 1014.53 1014.00 1013.60 1013.31 1013.11 1012.94 1012.78 1012.60 1012.39 1012.19 1012.02 1011.94 1011.96 1012.09 1012.34 1012.67 1013.03 1013.40 1013.72 1013.99 1014.20 1014.36 1014.49 1014.62 1014.77 1014.94 1015.12 1015.30 1015.45 1015.54 1015.57 1015.52 1015.42 1015.27 1015.09
1020.00 1019.63 1019.20 1018.68 1018.05 1017.34 1016.58 1015.83 1015.14 1014.56 1014.08 1013.71 1013.41 1013.14 1012.87 1012.59 1012.29 1012.01 1011.79 1011.65 1011.64 1011.75 1011.98 1012.30 1012.67 1013.03 1013.37 1013.64 1013.86 1014.03 1014.18 1014.33 1014.50 1014.69 1014.90 1015.11 1015.29 1015.43 1015.50 1015.50 1015.43 1015.32 1015.17
1020.58 1020.24 1019.84 1019.36 1018.76 1018.08 1017.33 1016.57 1015.86 1015.22 1014.68 1014.21 1013.79 1013.40 1013.02 1012.62 1012.23 1011.86 1011.56 1011.36 1011.30 1011.38 1011.59 1011.90 1012.26 1012.63 1012.97 1013.26 1013.49 1013.68 1013.85 1014.01 1014.20 1014.41 1014.64 1014.87 1015.07 1015.23 1015.33 1015.36 1015.34 1015.26 1015.16
1021.20 1020.90 1020.54 1020.10 1019.54 1018.88 1018.15 1017.39 1016.65 1015.96 1015.34 1014.77 1014.25 1013.74 1013.23 1012.71 1012.20 1011.74 1011.36 1011.09 1010.97 1011.00 1011.18 1011.46 1011.80 1012.17 1012.52 1012.82 1013.07 1013.28 1013.47 1013.65 1013.86 1014.08 1014.32 1014.56 1014.79 1014.97 1015.09 1015.16 1015.17 1015.14 1015.09
1021.87 1021.61 1021.30 1020.89 1020.36 1019.71 1018.99 1018.22 1017.46 1016.72 1016.03 1015.38 1014.75 1014.12 1013.50 1012.87 1012.26 1011.69 1011.22 1010.88 1010.68 1010.65 1010.77 1011.01 1011.32 1011.67 1012.00 1012.31 1012.57 1012.80 1013.01 1013.22 1013.45 1013.69 1013.94 1014.20 1014.44 1014.64 1014.80 1014.90 1014.97 1014.99 1015.00
1022.54 1022.34 1022.06 1021.67 1021.15 1020.51 1019.79 1019.01 1018.23 1017.45 1016.71 1015.98 1015.27 1014.56 1013.84 1013.11 1012.40 1011.75 1011.19 1010.75 1010.48 1010.36 1010.40 1010.57 1010.83 1011.13 1011.44 1011.74 1012.00 1012.24 1012.47 1012.70 1012.94 1013.20 1013.48 1013.76 1014.02 1014.25 1014.45 1014.60 1014.72 1014.82 1014.90
1023.17 1023.00 1022.74 1022.35 1021.83 1021.19 1020.47 1019.68 1018.88 1018.09 1017.32 1016.56 1015.80 1015.03 1014.24 1013.44 1012.66 1011.93 1011.28 1010.76 1010.39 1010.18 1010.12 1010.20 1010.38 1010.61 1010.87 1011.13 1011.37 1011.61 1011.84 1012.08 1012.34 1012.62 1012.91 1013.21 1013.50 1013.78 1014.02 1014.23 1014.41 1014.58 1014.74
1023.68 1023.53 1023.27 1022.87 1022.34 1021.69 1020.96 1020.18 1019.39 1018.60 1017.83 1017.06 1016.29 1015.50 1014.68 1013.85 1013.02 1012.22 1011.50 1010.89 1010.42 1010.11 1009.94 1009.92 1009.99 1010.14 1010.32 1010.52 1010.73 1010.94 1011.16 1011.39 1011.65 1011.94 1012.25 1012.57 1012.89 1013.20 1013.49 1013.76 1014.01 1014.25 1014.49
1024.04 1023.89 1023.61 1023.19 1022.64 1021.98 1021.26 1020.49 1019.72 1018.97 1018.23 1017.49 1016.73 1015.95 1015.13 1014.28 1013.42 1012.58 1011.80 1011.12 1010.56 1010.15 1009.88 1009.74 1009.71 1009.76 1009.86 1009.98 1010.13 1010.29 1010.47 1010.68 1010.93 1011.20 1011.52 1011.84 1012.19 1012.53 1012.86 1013.17 1013.48 1013.78 1014.08
1024.24 1024.06 1023.75 1023.30 1022.73 1022.07 1021.36 1020.62 1019.90 1019.19 1018.50 1017.80 1017.08 1016.33 1015.52 1014.67 1013.80 1012.93 1012.11 1011.37 1010.75 1010.26 1009.90 1009.68 1009.55 1009.50 1009.51 1009.56 1009.63 1009.72 1009.85 1010.01 1010.21 1010.46 1010.75 1011.07 1011.41 1011.76 1012.12 1012.47 1012.82 1013.16 1013.51
1024.29 1024.08 1023.72 1023.24 1022.66 1022.00 1021.31 1020.62 1019.94 1019.29 1018.64 1017.99 1017.31 1016.58 1015.79 1014.95 1014.07 1013.19 1012.35 1011.58 1010.92 1010.38 1009.97 1009.68 1009.49 1009.37 1009.30 1009.27 1009.26 1009.28 1009.33 1009.42 1009.56 1009.74 1009.99 1010.27 1010.59 1010.94 1011.29 1011.66 1012.03 1012.40 1012.77
1024.24 1023.98 1023.58 1023.07 1022.48 1021.83 1021.17 1020.52 1019.89 1019.28 1018.68 1018.05 1017.39 1016.66 1015.87 1015.03 1014.14 1013.26 1012.41 1011.64 1010.98 1010.44 1010.02 1009.71 1009.49 1009.33 1009.21 1009.12 1009.04 1008.98 1008.94 1008.94 1008.99 1009.10 1009.26 1009.49 1009.76 1010.08 1010.42 1010.77 1011.14 1011.52 1011.90
1024.13 1023.82 1023.39 1022.86 1022.26 1021.63 1021.00 1020.37 1019.77 1019.19 1018.59 1017.97 1017.29 1016.54 1015.73 1014.86 1013.97 1013.08 1012.25 1011.51 1010.88 1010.37 1009.98 1009.70 1009.50 1009.34 1009.20 1009.07 1008.94 1008.80 1008.67 1008.57 1008.51 1008.52 1008.59 1008.74 1008.95 1009.21 1009.52 1009.85 1010.21 1010.58 1010.96
1023.99 1023.64 1023.18 1022.64 1022.04 1021.43 1020.82 1020.22 1019.62 1019.03 1018.41 1017.74 1017.01 1016.21 1015.35 1014.44 1013.53 1012.65 1011.85 1011.15 1010.58 1010.15 1009.84 1009.62 1009.47 1009.35 1009.22 1009.07 1008.88 1008.68 1008.46 1008.25 1008.09 1007.98 1007.96 1008.01 1008.15 1008.36 1008.62 1008.93 1009.26 1009.62 1009.99
1023.83 1023.44 1022.97 1022.43 1021.85 1021.25 1020.65 1020.05 1019.44 1018.81 1018.13 1017.40 1016.59 1015.71 1014.78 1013.82 1012.89 1012.02 1011.25 1010.62 1010.13 1009.79 1009.57 1009.45 1009.37 1009.30 1009.20 1009.04 1008.82 1008.55 1008.25 1007.94 1007.67 1007.46 1007.33 1007.29 1007.36 1007.51 1007.73 1008.02 1008.33 1008.68 1009.04
1023.64 1023.24 1022.77 1022.24 1021.67 1021.08 1020.48 1019.87 1019.22 1018.53 1017.78 1016.96 1016.06 1015.10 1014.10 1013.10 1012.15 1011.29 1010.57 1010.01 1009.61 1009.37 1009.25 1009.22 1009.22 1009.19 1009.11 1008.95 1008.70 1008.37 1007.99 1007.59 1007.21 1006.90 1006.68 1006.57 1006.56 1006.67 1006.87 1007.13 1007.44 1007.77 1008.13
1023.42 1023.02 1022.55 1022.03 1021.48 1020.89 1020.29 1019.65 1018.96 1018.21 1017.39 1016.48 1015.50 1014.47 1013.42 1012.40 1011.45 1010.62 1009.95 1009.46 1009.14 1008.99 1008.95 1008.99 1009.04 1009.05 1008.97 1008.79 1008.50 1008.11 1007.65 1007.17 1006.71 1006.31 1006.02 1005.84 1005.79 1005.86 1006.03 1006.28 1006.59 1006.93 1007.28
1023.16 1022.76 1022.30 1021.79 1021.24 1020.66 1020.04 1019.38 1018.65 1017.85 1016.97 1016.01 1014.98 1013.92 1012.86 1011.84 1010.92 1010.14 1009.53 1009.10 1008.86 1008.76 1008.77 1008.84 1008.91 1008.92 1008.82 1008.61 1008.27 1007.81 1007.29 1006.73 1006.20 1005.74 1005.38 1005.16 1005.07 1005.12 1005.28 1005.53 1005.83 1006.17 1006.52
1022.87 1022.46 1022.00 1021.49 1020.94 1020.36 1019.73 1019.04 1018.29 1017.46 1016.56 1015.59 1014.57 1013.52 1012.50 1011.54 1010.68 1009.97 1009.43 1009.06 1008.86 1008.79 1008.82 1008.88 1008.92 1008.88 1008.74 1008.47 1008.07 1007.55 1006.97 1006.36 1005.77 1005.27 1004.87 1004.61 1004.50 1004.53 1004.68 1004.92 1005.23 1005.56 1005.90
1022.56 1022.13 1021.66 1021.14 1020.59 1019.98 1019.34 1018.64 1017.88 1017.06 1016.18 1015.25 1014.29 1013.32 1012.39 1011.53 1010.78 1010.16 1009.70 1009.39 1009.21 1009.15 1009.14 1009.16 1009.13 1009.03 1008.81 1008.47 1008.00 1007.44 1006.81 1006.16 1005.55 1005.02 1004.60 1004.33 1004.20 1004.21 1004.35 1004.57 1004.86 1005.17 1005.49
1022.24 1021.79 1021.29 1020.75 1020.17 1019.54 1018.88 1018.17 1017.43 1016.64 1015.82 1014.98 1014.14 1013.31 1012.53 1011.82 1011.20 1010.71 1010.33 1010.07 1009.91 1009.82 1009.77 1009.71 1009.60 1009.41 1009.11 1008.70 1008.18 1007.58 1006.93 1006.27 1005.66 1005.12 1004.70 1004.42 1004.28 1004.27 1004.38 1004.57 1004.82 1005.10 1005.38
1021.94 1021.45 1020.91 1020.33 1019.70 1019.04 1018.36 1017.65 1016.94 1016.21 1015.49 1014.78 1014.09 1013.44 1012.85 1012.32 1011.88 1011.51 1011.23 1011.03 1010.88 1010.77 1010.66 1010.52 1010.32 1010.05 1009.68 1009.22 1008.67 1008.06 1007.41 1006.78 1006.19 1005.67 1005.27 1004.98 1004.83 1004.79 1004.85 1005.00 1005.20 1005.41 1005.63
Thickness
5709 5709 5708 5708 5706 5704 5702 5700 5698 5697 5695 5693 5690 5688 5686 5686 5685 5685 5684 5683 5682 5681 5679 5677 5675 5673 5672 5670 5670 5669 5668 5667 5667 5666 5665 5666 5668 5668 5669 5670 5671 5672 5673
5705 5705 5705 5704 5702 5701 5699 5697 5695 5694 5692 5690 5688 5686 5684 5682 5681 5680 5680 5679 5677 5676 5674 5672 5670 5669 5667 5665 5665 5664 5662 5661 5661 5659 5657 5655 5657 5660 5662 5663 5663 5664 5665
5704 5703 5702 5701 5700 5698 5697 5696 5693 5691 5689 5688 5685 5682 5679 5677 5675 5674 5674 5674 5673 5672 5670 5668 5667 5665 5663 5661 5660 5659 5658 5655 5655 5654 5651 5647 5645 5648 5652 5654 5655 5656 5657
5706 5704 5702 5700 5699 5698 5697 5694 5691 5688 5686 5685 5682 5678 5674 5671 5670 5669 5669 5669 5668 5667 5666 5664 5663 5661 5659 5657 5656 5655 5653 5652 5649 5648 5647 5645 5643 5640 5641 5645 5647 5648 5649
5706 5704 5702 5701 5699 5697 5695 5692 5689 5686 5683 5681 5679 5675 5672 5669 5667 5665 5664 5663 5663 5662 5661 5660 5659 5657 5655 5654 5652 5650 5649 5647 5645 5643 5641 5640 5637 5636 5635 5635 5637 5640 5642
5705 5704 5702 5699 5697 5695 5692 5689 5686 5683 5680 5678 5675 5672 5669 5666 5663 5661 5659 5658 5657 5657 5656 5655 5654 5652 5651 5649 5647 5645 5644 5642 5641 5639 5637 5636 5634 5632 5630 5629 5629 5630 5634
5703 5701 5698 5696 5694 5691 5689 5686 5683 5680 5677 5675 5672 5669 5667 5664 5661 5658 5656 5654 5652 5651 5651 5650 5649 5647 5646 5644 5642 5640 5638 5637 5636 5635 5634 5633 5632 5631 5628 5625 5623 5623 5626
5700 5698 5697 5695 5692 5690 5687 5684 5680 5677 5674 5671 5669 5666 5664 5661 5659 5656 5653 5651 5649 5648 5647 5645 5644 5642 5641 5639 5637 5635 5634 5633 5631 5631 5629 5628 5628 5627 5625 5623 5620 5618 5619
5696 5695 5694 5692 5690 5687 5684 5681 5678 5674 5671 5669 5666 5663 5660 5658 5655 5652 5650 5648 5646 5645 5643 5641 5639 5637 5635 5634 5632 5630 5629 5628 5627 5625 5624 5623 5623 5622 5621 5620 5619 5615 5613
5691 5691 5690 5688 5686 5684 5681 5678 5675 5672 5669 5666 5662 5660 5656 5655 5652 5649 5646 5644 5642 5641 5638 5636 5634 5632 5630 5628 5626 5625 5624 5623 5622 5621 5619 5618 5617 5616 5616 5615 5614 5613 5612
5687 5686 5685 5684 5682 5679 5676 5673 5670 5668 5664 5662 5658 5655 5653 5650 5647 5644 5642 5640 5638 5636 5634 5632 5629 5627 5625 5624 5621 5620 5618 5617 5617 5616 5615 5613 5612 5611 5610 5610 5609 5608 5607
5683 5681 5680 5678 5675 5674 5671 5669 5667 5664 5661 5658 5654 5651 5648 5645 5642 5639 5637 5635 5633 5631 5629 5627 5624 5623 5621 5619 5617 5615 5613 5612 5611 5610 5609 5608 5608 5606 5605 5605 5604 5603 5603
5677 5675 5673 5672 5670 5669 5667 5664 5662 5660 5657 5653 5649 5645 5642 5639 5637 5635 5632 5630 5628 5626 5624 5622 5620 5618 5616 5614 5612 5611 5609 5607 5606 5605 5604 5603 5602 5601 5600 5600 5599 5599 5599
5670 5668 5667 5666 5665 5664 5662 5660 5657 5655 5653 5649 5645 5641 5637 5635 5633 5631 5628 5625 5623 5621 5618 5616 5614 5613 5611 5609 5608 5606 5604 5602 5600 5600 5599 5598 5598 5598 5597 5596 5595 5594 5593
5664 5663 5661 5660 5659 5657 5656 5654 5652 5650 5648 5644 5640 5637 5634 5631 5628 5625 5623 5620 5617 5615 5613 5610 5608 5607 5605 5605 5602 5600 5598 5596 5595 5594 5594 5593 5594 5595 5594 5593 5591 5590 5588
5660 5659 5657 5655 5654 5652 5651 5649 5647 5645 5642 5639 5636 5633 5629 5626 5623 5620 5617 5614 5611 5609 5607 5604 5602 5601 5601 5600 5598 5596 5593 5591 5589 5588 5588 5588 5589 5589 5589 5589 5588 5587 5585
5655 5654 5653 5651 5650 5648 5646 5644 5642 5639 5636 5633 5630 5627 5624 5620 5617 5615 5611 5608 5606 5603 5601 5599 5597 5596 5595 5595 5593 5591 5588 5586 5584 5583 5582 5583 5584 5583 5582 5582 5583 5582 5582
5649 5649 5647 5646 5645 5643 5641 5638 5635 5633 5630 5627 5623 5620 5617 5614 5611 5608 5605 5603 5600 5598 5596 5594 5592 5591 5590 5590 5588 5585 5582 5580 5579 5579 5578 5577 5578 5578 5577 5576 5575 5575 5576
5645 5644 5643 5641 5638 5636 5634 5631 5628 5626 5623 5620 5617 5614 5611 5607 5604 5601 5599 5597 5594 5592 5591 5588 5586 5584 5584 5584 5583 5580 5576 5574 5573 5573 5573 5572 5572 5574 5572 5570 5569 5569 5570
5639 5638 5636 5633 5631 5629 5626 5624 5621 5618 5616 5614 5612 5608 5604 5600 5597 5595 5593 5591 5589 5587 5584 5582 5580 5578 5577 5578 5577 5574 5571 5568 5567 5566 5566 5567 5567 5568 5567 5564 5563 5562 5563
5632 5631 5629 5626 5624 5622 5619 5616 5613 5611 5610 5607 5604 5600 5597 5594 5591 5588 5586 5584 5582 5579 5576 5574 5572 5571 5571 5570 5570 5568 5565 5563 5561 5560 5559 5560 5561 5561 5560 5559 5557 5558 5558
5623 5622 5620 5617 5615 5614 5612 5609 5606 5604 5601 5598 5595 5592 5589 5587 5584 5580 5578 5576 5574 5571 5568 5565 5563 5562 5562 5561 5561 5560 5559 5558 5555 5554 5554 5553 5554 5553 5552 5551 5552 5551 5550
5614 5613 5611 5608 5606 5605 5604 5600 5598 5596 5593 5590 5586 5583 5581 5579 5576 5573 5570 5568 5566 5563 5560 5558 5555 5554 5553 5552 5552 5552 5551 5550 5547 5547 5547 5547 5546 5544 5544 5544 5543 5542 5541
5605 5604 5602 5599 5597 5595 5594 5592 5590 5587 5585 5581 5577 5575 5572 5570 5568 5566 5563 5560 5558 5556 5553 5551 5548 5546 5544 5543 5543 5542 5542 5540 5539 5538 5537 5537 5536 5534 5534 5534 5533 5532 5532
5597 5595 5592 5590 5588 5586 5585 5583 5581 5579 5575 5572 5569 5567 5564 5561 5559 5557 5554 5553 5552 5550 5548 5545 5543 5540 5538 5537 5536 5534 5533 5531 5530 5528 5527 5526 5525 5524 5523 5523 5523 5523 5523
5588 5585 5583 5581 5578 5577 5575 5573 5572 5570 5566 5563 5561 5558 5556 5553 5551 5548 5545 5544 5543 5543 5542 5540 5537 5534 5532 5530 5528 5527 5525 5524 5522 5520 5517 5515 5514 5514 5513 5512 5512 5513 5513